• In Moldova, Republic
  • List of Countries
  • For 7 days
  • Water Temperature
  • Satellite Maps
  • Weather Map
  • Weather Widgets
  • user-avatar
    Login

    Hourly Weather Shkoder

    Today, 17 October, Tuesday

    Time Temperature Precipitation Wind Pressure Humidity
    00:00 +19°C° 0 mm 2 mps 748 mmHg 58%
    01:00 +18°C° 0 mm 2 mps 748 mmHg 59%
    02:00 +18°C° 0 mm 2 mps 747 mmHg 59%
    03:00 +18°C° 0 mm 2 mps 747 mmHg 59%
    04:00 +18°C° 0 mm 2 mps 747 mmHg 59%
    05:00 +18°C° 0 mm 2 mps 747 mmHg 59%
    06:00 +19°C° 0 mm 2 mps 747 mmHg 59%
    07:00 +19°C° 0 mm 2 mps 747 mmHg 59%
    08:00 +22°C° 0 mm 1 mps 747 mmHg 53%
    09:00 +25°C° 0 mm 1 mps 747 mmHg 46%
    10:00 +27°C° 0 mm 1 mps 747 mmHg 40%
    11:00 +28°C° 0 mm 1 mps 747 mmHg 39%
    12:00 +28°C° 0 mm 1 mps 746 mmHg 37%
    13:00 +29°C° 0 mm 2 mps 746 mmHg 36%
    14:00 +28°C° 0 mm 1 mps 746 mmHg 41%
    15:00 +27°C° 0 mm 1 mps 745 mmHg 46%
    16:00 +26°C° 0 mm 1 mps 745 mmHg 51%
    17:00 +24°C° 0 mm 1 mps 745 mmHg 54%
    18:00 +23°C° 0 mm 1 mps 745 mmHg 56%
    19:00 +21°C° 0 mm 1 mps 745 mmHg 59%
    20:00 +21°C° 0 mm 1 mps 745 mmHg 60%
    21:00 +21°C° 0 mm 1 mps 745 mmHg 60%
    22:00 +20°C° 0 mm 1 mps 745 mmHg 60%
    23:00 +20°C° 0 mm 1 mps 745 mmHg 60%

    Tomorrow, 18 October, Wednesday

    Time Temperature Precipitation Wind Pressure Humidity
    00:00 +20°C° 0 mm 1 mps 745 mmHg 60%
    01:00 +20°C° 0 mm 1 mps 744 mmHg 60%
    02:00 +19°C° 0 mm 1 mps 744 mmHg 60%
    03:00 +19°C° 0 mm 1 mps 744 mmHg 59%
    04:00 +19°C° 0 mm 1 mps 743 mmHg 59%
    05:00 +19°C° 0 mm 1 mps 743 mmHg 59%
    06:00 +20°C° 0 mm 1 mps 743 mmHg 59%
    07:00 +20°C° 0 mm 1 mps 744 mmHg 58%
    08:00 +22°C° 0 mm 1 mps 743 mmHg 53%
    09:00 +24°C° 0 mm 1 mps 743 mmHg 47%
    10:00 +24°C° 0 mm 0 mps 743 mmHg 41%
    11:00 +27°C° 0 mm 1 mps 743 mmHg 41%
    12:00 +27°C° 0 mm 1 mps 742 mmHg 40%
    13:00 +27°C° 0 mm 2 mps 742 mmHg 40%
    14:00 +26°C° 0 mm 2 mps 742 mmHg 44%
    15:00 +26°C° 0 mm 1 mps 741 mmHg 49%
    16:00 +25°C° 0 mm 1 mps 741 mmHg 53%
    17:00 +23°C° 0 mm 1 mps 741 mmHg 58%
    18:00 +21°C° 0 mm 1 mps 741 mmHg 62%
    19:00 +20°C° 0 mm 1 mps 742 mmHg 66%
    20:00 +20°C° 0 mm 1 mps 742 mmHg 66%
    21:00 +19°C° 0 mm 1 mps 742 mmHg 66%
    22:00 +19°C° 0 mm 1 mps 742 mmHg 66%
    23:00 +19°C° 0 mm 1 mps 742 mmHg 65%

    Day after tomorrow, 19 October, Thursday

    Time Temperature Precipitation Wind Pressure Humidity
    00:00 +18°C° 0 mm 1 mps 742 mmHg 64%
    01:00 +18°C° 0 mm 1 mps 742 mmHg 64%
    02:00 +18°C° 0 mm 1 mps 741 mmHg 63%
    03:00 +18°C° 0 mm 1 mps 741 mmHg 63%
    04:00 +18°C° 0 mm 1 mps 741 mmHg 63%
    05:00 +18°C° 0 mm 1 mps 741 mmHg 63%
    06:00 +18°C° 0 mm 1 mps 741 mmHg 63%
    07:00 +18°C° 0 mm 1 mps 741 mmHg 62%
    08:00 +20°C° 0 mm 1 mps 741 mmHg 56%
    09:00 +22°C° 0 mm 1 mps 741 mmHg 50%
    10:00 +24°C° 0 mm 1 mps 741 mmHg 44%
    11:00 +25°C° 0 mm 2 mps 741 mmHg 43%
    12:00 +25°C° 0 mm 2 mps 741 mmHg 42%
    13:00 +26°C° 0 mm 2 mps 741 mmHg 42%
    14:00 +25°C° 0 mm 2 mps 741 mmHg 46%
    15:00 +24°C° 0 mm 2 mps 740 mmHg 51%
    16:00 +23°C° 0 mm 1 mps 740 mmHg 55%
    17:00 +21°C° 0 mm 1 mps 741 mmHg 60%
    18:00 +20°C° 0 mm 1 mps 741 mmHg 65%
    19:00 +18°C° 0 mm 1 mps 741 mmHg 70%
    20:00 +18°C° 0 mm 1 mps 741 mmHg 69%
    21:00 +16°C° 0 mm 1 mps 742 mmHg 68%
    22:00 +16°C° 0 mm 1 mps 742 mmHg 67%
    23:00 +16°C° 0 mm 1 mps 742 mmHg 66%

    20 October, Friday

    Time Temperature Precipitation Wind Pressure Humidity
    00:00 +16°C° 0 mm 1 mps 742 mmHg 64%
    01:00 +15°C° 0 mm 1 mps 742 mmHg 62%
    02:00 +15°C° 0 mm 1 mps 742 mmHg 62%
    03:00 +15°C° 0 mm 1 mps 742 mmHg 61%
    04:00 +15°C° 0 mm 1 mps 742 mmHg 60%
    05:00 +15°C° 0 mm 1 mps 742 mmHg 60%
    06:00 +15°C° 0 mm 1 mps 742 mmHg 59%
    07:00 +16°C° 0 mm 1 mps 742 mmHg 59%
    08:00 +19°C° 0 mm 1 mps 742 mmHg 53%
    09:00 +21°C° 0 mm 1 mps 743 mmHg 48%
    10:00 +23°C° 0 mm 1 mps 743 mmHg 42%
    11:00 +24°C° 0 mm 1 mps 742 mmHg 41%
    12:00 +24°C° 0 mm 2 mps 742 mmHg 40%
    13:00 +25°C° 0 mm 2 mps 742 mmHg 39%
    14:00 +24°C° 0 mm 2 mps 742 mmHg 45%
    15:00 +23°C° 0 mm 2 mps 742 mmHg 51%
    16:00 +21°C° 0 mm 2 mps 742 mmHg 56%
    17:00 +20°C° 0 mm 1 mps 742 mmHg 63%
    18:00 +19°C° 0 mm 1 mps 743 mmHg 69%
    19:00 +16°C° 0 mm 1 mps 743 mmHg 75%
    20:00 +16°C° 0 mm 1 mps 743 mmHg 74%
    21:00 +15°C° 0 mm 1 mps 743 mmHg 73%
    22:00 +15°C° 0 mm 1 mps 744 mmHg 72%
    23:00 +15°C° 0 mm 1 mps 744 mmHg 71%

    21 October, Saturday

    Time Temperature Precipitation Wind Pressure Humidity
    00:00 +15°C° 0 mm 1 mps 743 mmHg 69%
    01:00 +15°C° 0 mm 1 mps 743 mmHg 68%
    02:00 +14°C° 0 mm 1 mps 743 mmHg 66%
    03:00 +14°C° 0 mm 1 mps 743 mmHg 65%
    04:00 +14°C° 0 mm 1 mps 743 mmHg 63%
    05:00 +14°C° 0 mm 1 mps 743 mmHg 62%
    06:00 +15°C° 0 mm 1 mps 743 mmHg 60%
    07:00 +15°C° 0 mm 1 mps 743 mmHg 58%
    08:00 +18°C° 0 mm 1 mps 743 mmHg 52%
    09:00 +21°C° 0 mm 1 mps 743 mmHg 45%
    10:00 +23°C° 0 mm 1 mps 743 mmHg 39%
    11:00 +23°C° 0 mm 1 mps 743 mmHg 38%
    12:00 +24°C° 0 mm 2 mps 743 mmHg 37%
    13:00 +24°C° 0 mm 2 mps 742 mmHg 37%
    14:00 +24°C° 0 mm 2 mps 742 mmHg 42%
    15:00 +23°C° 0 mm 2 mps 742 mmHg 48%
    16:00 +21°C° 0 mm 2 mps 742 mmHg 53%
    17:00 +19°C° 0 mm 2 mps 742 mmHg 59%
    18:00 +19°C° 0 mm 1 mps 742 mmHg 64%
    19:00 +16°C° 0 mm 1 mps 742 mmHg 69%
    20:00 +16°C° 0 mm 1 mps 742 mmHg 70%
    21:00 +15°C° 0 mm 1 mps 742 mmHg 70%
    22:00 +15°C° 0 mm 1 mps 742 mmHg 70%
    23:00 +15°C° 0 mm 1 mps 742 mmHg 70%

    22 October, Sunday

    Time Temperature Precipitation Wind Pressure Humidity
    00:00 +15°C° 0 mm 1 mps 742 mmHg 70%
    01:00 +14°C° 0 mm 1 mps 742 mmHg 70%
    02:00 +14°C° 0 mm 1 mps 742 mmHg 69%
    03:00 +14°C° 0 mm 1 mps 742 mmHg 69%
    04:00 +14°C° 0 mm 1 mps 742 mmHg 68%
    05:00 +14°C° 0 mm 1 mps 741 mmHg 66%
    06:00 +14°C° 0 mm 1 mps 741 mmHg 64%
    07:00 +15°C° 0 mm 1 mps 741 mmHg 62%
    08:00 +18°C° 0 mm 1 mps 741 mmHg 55%
    09:00 +20°C° 0 mm 1 mps 741 mmHg 48%
    10:00 +22°C° 0 mm 1 mps 741 mmHg 41%
    11:00 +23°C° 0 mm 2 mps 741 mmHg 41%
    12:00 +23°C° 0 mm 2 mps 740 mmHg 40%
    13:00 +24°C° 0 mm 2 mps 740 mmHg 40%
    14:00 +23°C° 0 mm 2 mps 739 mmHg 46%
    15:00 +21°C° 0 mm 2 mps 739 mmHg 53%
    16:00 +20°C° 0 mm 2 mps 739 mmHg 59%
    17:00 +19°C° 0 mm 1 mps 739 mmHg 66%
    18:00 +18°C° 0 mm 1 mps 739 mmHg 73%
    19:00 +15°C° 0 mm 1 mps 739 mmHg 80%
    20:00 +15°C° 0 mm 1 mps 739 mmHg 78%
    21:00 +15°C° 0 mm 1 mps 739 mmHg 77%
    22:00 +15°C° 0 mm 2 mps 739 mmHg 76%
    23:00 +15°C° 0 mm 2 mps 738 mmHg 75%
    Show more